TimeEST,TemperatureF,Dew PointF,Humidity,Sea Level PressureIn,VisibilityMPH,Wind Direction,Wind SpeedMPH,Gust SpeedMPH,PrecipitationIn,Events,Conditions,WindDirDegrees,DateUTC
12:56 AM,64.0,64.0,100,30.00,0.1,Calm,Calm,-,N/A,Fog,Fog,0,2012-12-10 05:56:00
1:56 AM,63.0,63.0,100,29.99,0.1,Calm,Calm,-,N/A,Fog,Fog,0,2012-12-10 06:56:00
2:56 AM,63.0,63.0,100,29.98,0.1,Calm,Calm,-,N/A,Fog,Fog,0,2012-12-10 07:56:00
3:56 AM,64.0,63.0,96,29.97,0.1,SSW,3.5,-,N/A,Fog,Fog,200,2012-12-10 08:56:00
4:56 AM,64.0,63.0,96,29.96,0.1,WSW,3.5,-,N/A,Fog,Fog,240,2012-12-10 09:56:00
5:56 AM,63.0,63.0,100,29.97,0.1,SW,3.5,-,N/A,Fog,Fog,220,2012-12-10 10:56:00
6:45 AM,62.6,62.6,100,29.97,0.1,SSW,4.6,-,N/A,Fog,Fog,210,2012-12-10 11:45:00
6:56 AM,63.0,63.0,100,29.97,0.2,SSW,4.6,-,N/A,Fog,Fog,210,2012-12-10 11:56:00
7:38 AM,62.6,62.6,100,29.96,0.5,SW,5.8,-,N/A,Fog,Fog,220,2012-12-10 12:38:00
7:56 AM,61.0,61.0,100,29.96,0.8,SSW,3.5,-,N/A,,Mostly Cloudy,210,2012-12-10 12:56:00
8:39 AM,62.6,62.6,100,29.97,2.0,SW,5.8,-,N/A,,Mostly Cloudy,230,2012-12-10 13:39:00
8:46 AM,62.6,60.8,94,29.97,6.0,SW,4.6,-,N/A,,Mostly Cloudy,220,2012-12-10 13:46:00
8:56 AM,62.1,62.1,100,29.97,8.0,West,4.6,-,N/A,,Mostly Cloudy,270,2012-12-10 13:56:00
9:56 AM,66.9,61.0,81,29.98,10.0,SW,4.6,-,N/A,,Mostly Cloudy,220,2012-12-10 14:56:00
10:56 AM,73.0,61.0,66,29.96,10.0,SSW,8.1,34.5,N/A,,Mostly Cloudy,210,2012-12-10 15:56:00
11:56 AM,78.1,61.0,56,29.93,10.0,SSW,10.4,19.6,N/A,,Mostly Cloudy,210,2012-12-10 16:56:00
12:56 PM,80.1,61.0,52,29.89,10.0,SW,6.9,-,N/A,,Mostly Cloudy,220,2012-12-10 17:56:00
1:56 PM,81.0,61.0,50,29.86,10.0,SSW,11.5,-,N/A,,Mostly Cloudy,200,2012-12-10 18:56:00
2:56 PM,77.0,64.0,64,29.84,10.0,South,8.1,-,N/A,,Overcast,170,2012-12-10 19:56:00
3:43 PM,73.4,66.2,78,29.83,10.0,SSW,5.8,-,0.00,Rain-Thunderstorm,Light Thunderstorms and Rain,200,2012-12-10 20:43:00
3:56 PM,72.0,66.9,84,29.84,9.0,South,10.4,-,0.00,Rain-Thunderstorm,Light Thunderstorms and Rain,190,2012-12-10 20:56:00
4:20 PM,71.6,68.0,88,29.82,10.0,SSW,5.8,-,0.03,Rain,Light Rain,200,2012-12-10 21:20:00
4:56 PM,70.0,68.0,93,29.83,10.0,SSW,9.2,-,0.03,,Mostly Cloudy,200,2012-12-10 21:56:00
5:56 PM,69.1,66.9,93,29.84,5.0,SSW,9.2,-,0.00,Rain,Light Rain,200,2012-12-10 22:56:00
6:56 PM,69.1,66.9,93,29.85,10.0,SW,8.1,-,0.01,,Overcast,220,2012-12-10 23:56:00
7:07 PM,69.8,66.2,88,29.85,4.0,SSW,9.2,-,0.01,Rain,Light Rain,210,2012-12-11 00:07:00
7:56 PM,69.1,66.9,93,29.83,10.0,WSW,5.8,-,0.01,,Overcast,240,2012-12-11 00:56:00
8:46 PM,69.8,68.0,94,29.86,10.0,SSW,6.9,-,N/A,,Overcast,200,2012-12-11 01:46:00
8:56 PM,69.1,68.0,96,29.86,10.0,South,6.9,-,N/A,,Overcast,190,2012-12-11 01:56:00
9:56 PM,68.0,66.9,96,29.87,10.0,SSW,5.8,-,N/A,,Mostly Cloudy,200,2012-12-11 02:56:00
10:47 PM,66.2,66.2,100,29.87,10.0,South,3.5,-,N/A,,Mostly Cloudy,190,2012-12-11 03:47:00
10:56 PM,66.0,66.0,100,29.87,8.0,South,3.5,-,N/A,,Mostly Cloudy,180,2012-12-11 03:56:00
11:56 PM,66.0,64.9,96,29.86,10.0,WSW,6.9,-,N/A,,Mostly Cloudy,250,2012-12-11 04:56:00